Location: Igon
(43.1667°N, 0.2333°W)
Time: 15:24:12
(UTC+00:00)

H-2A R/B - Pass Details

Date: 29 November 2020
Orbit: 499 x 540 km, 97.3° (Epoch: 22 January)

Event Time Altitude Azimuth Distance (km) Brightness Sun altitude
Rises 06:10:08 0° 4° (N) 2,708 6.2 -10.9°
Reaches altitude 10° 06:12:21 10° 357° (N) 1,809 5.2 -10.6°
Maximum altitude 06:16:01 40° 288° (WNW) 805 3.2 -9.9°
Drops below altitude 10° 06:19:37 10° 218° (SW) 1,780 5.2 -9.3°
Sets 06:21:47 0° 211° (SSW) 2,658 6.2 -9.0°
